Dewpoint
2 3 2 1 1 1 2 3 1 2 3 1 1 1 0 1 -0 -0 -1 -7 -3 -2 1 2 5 6 6 6 7 7 8 7 7 7 6 4 4 4 4 3 3 2 3 3 3
2 2 2 1 1 3 2 2 2 3 2 2 0 2 2 1 -1 -2 -2 -2 -3 3 4 2 1 5 7 6 5 7 7 6 4 5 5 4 4 5 4 5 4 4 4 3 3
3 2 1 1 2 2 2 1 2 0 2 2 2 1 1 1 -1 -3 4 3 3 4 4 4 2 4 6 6 5 6 7 4 4 4 4 5 4 4 5 5 3 3 3 3 7
3 1 1 2 2 2 1 0 1 2 3 2 2 3 1 -1 -2 -2 2 2 3 3 3 4 3 4 5 6 5 6 5 5 4 4 4 6 5 5 4 4 3 3 3 3 3
2 1 1 1 1 0 0 -0 1 3 2 2 2 2 3 0 -2 -2 -2 -3 2 2 3 4 3 4 4 4 5 5 5 4 4 4 4 3 5 5 6 4 4 4 4 3 3
2 2 1 1 1 1 0 1 1 1 2 2 1 2 3 1 -1 -2 -1 -1 -2 2 2 3 3 3 3 3 3 3 3 4 4 5 4 3 2 4 4 4 5 4 3 3 3
2 2 1 1 1 1 0 1 1 1 -1 -2 0 1 2 2 -0 -2 -2 -2 -1 -1 0 1 2 3 3 2 2 3 4 2 4 4 5 4 5 4 2 4 5 5 4 3 3
2 2 1 1 1 1 1 0 -1 -2 -0 0 0 2 1 -1 -3 -2 -2 -1 -0 0 -0 -0 0 2 4 3 3 4 4 4 1 4 4 4 6 3 2 4 5 5 5 3 3
2 1 1 1 1 1 1 -2 -1 0 1 1 1 1 -2 -4 -1 -0 0 1 1 1 2 2 1 2 3 5 6 5 6 5 1 3 4 4 6 2 3 5 5 5 4 4 4
1 1 1 1 1 2 -2 -2 -1 -1 2 1 -0 -2 -2 -1 -1 1 1 1 1 1 1 1 1 3 4 4 5 4 5 5 2 4 4 4 4 1 1 3 5 6 4 4 4
2 1 1 1 2 -1 -2 -1 -3 -2 -1 -2 -2 -3 -2 -1 -0 1 1 1 1 1 1 1 3 3 4 4 4 5 3 4 2 4 4 5 4 2 1 2 2 5 7 4 4
1 1 1 2 0 -1 -2 -3 -2 -3 -4 -4 -3 -2 -1 -2 -1 1 1 1 0 1 1 1 2 2 3 4 4 4 4 4 3 4 5 5 5 3 2 2 2 2 6 7 4
-4 1 2 1 -1 -1 -1 -1 -1 -3 -4 -3 -1 -2 -2 -2 -2 -1 0 -0 -0 0 -0 -1 -0 2 4 4 4 5 5 4 5 5 3 5 6 5 3 2 2 1 2 4 3
-8 -3 0 -1 -0 -0 -1 -1 -1 -2 -6 -2 -1 -0 -1 -2 -3 -1 0 -0 -1 -1 -1 -1 -2 -0 4 4 3 4 4 3 5 5 7 3 6 3 4 3 3 2 1 1 1
-6 -0 0 0 -0 -0 -0 -0 -1 -2 -3 -2 1 -0 -1 -3 -2 -2 0 -2 -1 -0 -3 -3 -0 -0 2 4 2 4 3 4 4 3 4 4 5 3 1 4 2 2 2 2 1
-3 1 2 1 1 0 0 1 0 -4 1 -0 1 0 -0 -1 -1 -2 -1 -2 -1 -1 -1 -1 -2 -1 0 1 2 2 3 5 5 4 6 3 4 2 2 2 1 0 0 0 1
-0 1 1 1 1 0 1 1 -4 -1 -2 1 2 1 0 1 -0 -1 0 -0 -1 -2 -4 -4 -3 -1 1 3 2 3 3 7 7 6 4 3 5 3 -1 -1 -1 -0 -1 -1 -2
1 0 -0 1 1 1 1 -1 -0 0 2 1 3 2 1 1 0 0 0 1 -3 -7 -4 -4 -3 -1 -1 1 2 3 3 5 6 5 5 3 4 1 -2 -2 -3 -3 -3 -2 -2
-0 0 -0 0 2 1 1 0 -0 2 3 4 3 1 1 2 1 1 0 -0 -2 -5 -6 -3 -4 -3 -1 0 2 4 4 4 3 1 4 4 2 -0 -1 -1 -2 -2 -2 -3 -3
-1 0 -1 1 1 1 -2 1 1 1 3 3 5 3 5 2 1 1 0 -1 -1 -4 -6 -4 -3 -0 -1 1 1 2 3 3 2 4 5 3 4 2 -1 -0 -2 -1 -2 -3 -3
0 0 -2 0 1 1 2 2 2 1 3 4 4 5 5 3 1 1 1 1 -2 -2 -4 -1 -2 -0 0 2 3 4 4 3 3 3 2 5 3 -1 -2 -3 -2 -2 -1 -1 -1
-2 -3 -3 -1 -2 -0 0 2 -1 1 2 3 3 3 4 5 3 2 2 2 -1 -3 -2 -2 0 1 -0 0 -1 2 2 1 2 5 1 1 3 -3 -2 -2 -3 -1 1 1 1
-4 -5 -3 -2 -2 1 -1 -0 -1 -0 2 1 3 2 1 4 5 4 4 1 -0 -3 -2 -2 -3 1 2 0 1 2 2 1 0 1 2 2 1 -3 -2 -1 -1 1 2 3 2
-9 -6 -6 -4 -3 -1 0 -1 -1 -2 2 0 3 2 2 2 3 4 5 1 -0 -3 -2 -4 -3 -1 -0 -3 1 3 3 0 -0 2 1 1 0 -2 -2 -2 0 1 3 3 3
-9 -4 -4 -7 -5 -4 -2 -3 -2 -2 -3 -0 3 1 4 4 4 4 4 2 1 1 1 -1 1 -0 0 2 1 1 3 2 -0 -1 0 -2 0 -1 -3 -2 -0 1 3 3 3
-9 -7 -4 -5 -5 -4 -4 -3 -2 -5 -3 0 2 0 2 4 4 4 3 3 3 1 1 1 3 2 4 3 2 2 2 2 0 0 1 -1 -0 -3 -3 -1 1 1 2 3 3
-9 -7 -7 -6 -6 -5 -4 -4 -4 -4 -5 -3 -1 -1 2 3 0 -1 0 1 2 3 2 2 3 2 5 4 4 4 3 3 3 1 1 3 0 -3 -3 -2 -0 1 2 2 2
Wind_Speed
22 21 21 23 22 19 16 20 14 14 13 11 14 16 12 12 15 16 19 19 17 18 14 10 11 11 14 11 10 8 4 12 16 10 7 13 12 7 5 10 9 9 4 5 14
21 23 21 24 19 20 21 17 12 13 10 12 13 8 10 11 13 18 17 18 15 15 14 11 15 8 10 11 10 5 7 7 4 5 4 10 13 13 8 9 5 9 4 4 14
22 23 25 21 18 19 20 14 15 13 12 9 11 10 9 9 12 5 10 4 12 16 17 17 12 12 9 8 10 7 6 5 4 9 5 6 12 16 12 9 17 15 9 2 9
23 22 23 24 21 18 18 14 11 11 13 13 13 11 9 8 4 2 7 9 5 12 16 16 17 11 5 8 8 5 11 5 5 4 7 4 7 11 18 21 14 9 11 10 4
21 24 24 24 22 16 16 14 13 17 15 14 12 9 9 5 8 10 14 13 6 5 9 12 18 15 11 6 6 8 2 20 15 5 2 4 6 8 14 20 17 15 11 10 8
22 23 23 24 22 18 14 15 18 18 16 15 11 9 9 2 6 8 5 6 9 10 6 6 10 10 12 8 15 7 15 4 20 4 1 1 2 9 13 20 16 22 19 12 5
23 24 25 24 22 20 15 17 17 17 16 11 6 6 6 9 11 10 11 10 4 12 17 6 7 9 4 9 14 6 11 15 7 3 4 5 6 5 5 20 21 24 30 30 17
23 25 26 24 23 20 14 15 18 10 7 3 6 6 4 3 7 7 9 6 7 8 6 8 6 15 9 7 10 11 4 11 13 5 5 6 8 5 9 19 25 29 30 31 24
25 26 26 25 21 15 12 13 4 7 6 6 5 3 2 4 7 5 1 2 8 6 6 3 1 6 15 8 5 9 10 9 10 13 3 8 4 4 7 11 16 18 23 31 26
26 26 26 21 18 13 9 3 3 4 5 3 2 1 3 4 4 1 5 9 3 4 2 3 2 3 7 7 7 14 10 8 12 10 10 5 4 0 9 9 11 17 22 24 29
25 26 24 18 13 7 9 1 1 1 1 1 2 1 1 7 3 2 4 8 3 1 2 1 4 3 7 11 3 1 12 11 7 5 11 7 6 3 3 11 9 10 18 23 28
26 26 20 14 5 5 8 3 3 2 1 2 4 4 2 4 2 4 4 3 3 2 2 2 2 4 7 12 7 3 11 9 5 5 8 8 7 6 4 5 17 18 20 28 35
28 24 15 10 2 4 5 7 8 2 2 2 2 0 2 1 0 3 7 4 3 2 1 3 1 3 3 8 6 4 6 10 7 7 1 8 8 7 5 9 11 17 25 33 32
28 14 12 6 2 3 3 6 6 3 4 2 2 1 0 1 1 1 7 1 1 2 2 2 2 3 2 5 7 1 8 17 13 14 7 3 5 9 13 8 8 19 20 23 30
19 11 10 8 3 1 4 4 4 2 4 2 1 1 1 2 1 1 6 2 2 1 2 4 1 2 2 3 9 2 6 2 10 6 5 2 2 3 4 18 16 14 24 23 22
11 8 8 8 7 3 6 3 2 5 3 3 1 1 1 2 1 2 3 3 2 2 3 2 4 1 1 9 7 8 3 6 6 4 4 4 4 4 6 10 11 15 26 31 28
3 5 8 6 4 5 6 3 4 5 1 3 2 2 3 3 3 3 4 2 3 3 3 6 3 3 3 6 3 5 4 2 4 4 3 6 5 8 3 4 7 17 29 34 35
3 5 15 5 3 4 5 2 8 3 4 1 1 3 3 6 4 4 3 4 2 5 2 3 4 2 2 1 3 4 4 2 3 6 5 3 7 7 4 14 11 11 12 12 25
6 3 13 10 1 3 2 5 3 2 4 5 1 1 2 4 3 4 6 4 7 7 4 3 3 1 1 5 2 5 4 4 2 2 3 3 5 7 6 6 5 13 15 16 14
2 2 13 8 2 2 3 2 2 2 4 3 3 3 3 3 4 5 6 4 6 8 3 4 3 0 3 5 3 1 6 2 1 3 3 1 4 3 2 5 3 4 8 10 10
1 2 13 7 2 2 3 3 3 8 12 3 3 3 4 2 5 3 2 3 8 8 6 4 2 1 6 3 4 4 2 2 1 1 3 4 3 3 2 2 1 3 4 7 9
0 2 13 6 3 3 2 4 7 7 9 3 3 6 5 3 3 4 4 5 12 11 7 5 2 3 2 5 5 2 5 4 3 3 2 1 2 1 4 4 1 2 2 5 7
1 2 9 6 3 3 4 2 2 5 5 6 4 9 9 4 4 3 3 3 14 9 7 6 1 3 2 3 3 4 4 4 3 3 1 2 1 1 4 4 5 5 5 8 12
1 2 4 8 4 2 4 4 6 8 1 5 3 6 6 2 2 5 7 3 6 7 6 10 1 3 4 3 5 4 6 3 4 2 1 3 3 4 7 5 4 5 8 10 11
4 2 2 2 3 3 3 4 5 7 5 8 1 11 7 3 5 7 5 5 2 3 2 3 4 4 7 7 5 8 15 11 5 4 4 3 5 2 3 3 1 5 8 10 13
3 3 3 2 3 2 5 4 4 5 3 4 7 14 10 4 2 5 6 2 3 4 3 0 3 4 3 4 7 4 12 14 14 5 2 1 2 5 1 5 4 8 9 11 12
4 5 3 3 2 2 1 3 3 6 5 6 8 8 8 4 16 23 17 14 3 6 8 5 3 1 1 2 4 2 10 15 8 5 6 6 5 3 2 2 5 10 12 12 12
Wind_Direction
333 340 336 327 327 331 323 327 310 315 303 302 309 300 299 284 282 280 271 280 252 246 259 269 230 231 224 198 192 184 213 223 217 185 205 180 192 180 172 184 186 191 155 358 342
341 336 332 329 337 325 325 316 297 312 317 309 321 309 293 291 297 289 297 273 243 235 231 245 216 233 217 197 195 175 217 229 188 181 194 185 180 160 188 165 182 158 170 320 329
334 335 332 332 331 325 327 334 326 287 301 293 308 296 299 306 310 289 5 311 242 228 233 228 216 220 227 198 189 183 226 206 217 197 198 191 207 197 148 190 205 205 219 218 359
336 336 331 331 330 328 325 311 308 310 305 290 294 285 293 296 276 260 17 27 124 218 226 234 206 198 203 208 198 187 222 218 169 123 194 196 190 213 219 224 204 202 202 246 268
335 333 332 327 331 327 323 315 303 308 305 299 297 281 263 257 254 283 284 290 242 224 216 223 201 200 204 191 202 217 203 220 238 239 54 240 211 202 227 230 227 209 179 187 215
336 334 334 327 329 327 320 317 306 302 298 296 290 273 240 264 293 306 305 344 244 239 242 214 188 219 226 227 191 204 217 228 235 235 222 306 172 188 237 233 215 202 191 213 180
331 331 331 328 327 324 315 315 309 301 300 292 261 242 237 264 291 281 287 298 300 235 237 271 252 230 239 219 229 237 185 228 260 202 227 211 260 230 205 217 208 203 206 210 228
333 329 329 328 326 323 324 322 313 328 315 203 196 175 237 299 304 295 283 264 232 237 217 225 266 241 246 245 182 207 173 194 228 161 227 191 228 230 215 207 202 207 210 206 216
332 329 327 330 330 331 328 323 9 16 70 123 147 164 307 345 4 348 359 229 178 197 187 178 207 215 208 226 181 189 192 191 203 189 157 199 220 237 210 205 211 217 217 202 219
333 329 327 334 332 330 340 346 47 67 89 112 146 125 38 16 344 257 141 149 131 130 180 183 148 201 187 187 202 188 174 175 196 188 202 161 209 355 209 203 208 217 210 202 221
330 330 332 337 339 350 5 131 305 295 355 54 102 96 323 14 49 260 235 133 78 63 205 186 209 240 209 173 95 270 185 178 182 199 179 201 191 181 193 215 224 202 201 207 222
333 333 334 340 351 16 25 55 16 312 26 353 245 267 307 351 63 144 160 109 216 146 238 217 107 312 242 122 118 123 188 180 152 163 180 182 211 244 215 215 208 199 196 195 203
340 337 341 345 43 29 43 29 7 347 89 348 61 267 234 299 16 182 189 178 170 222 32 134 289 348 166 130 137 88 220 201 146 151 78 144 237 228 226 230 216 208 207 205 205
343 352 351 10 22 3 26 20 346 344 73 313 301 326 223 171 96 186 188 186 343 244 192 40 236 73 45 139 150 309 332 209 154 158 183 218 224 225 218 224 221 226 217 207 213
347 356 0 16 19 351 349 341 343 303 61 264 16 271 166 171 132 152 168 174 178 295 69 245 12 76 139 110 129 136 307 295 186 139 121 190 228 244 194 221 221 228 233 232 222
346 358 11 27 15 357 349 332 312 49 355 350 350 32 75 230 174 119 146 125 101 84 356 338 317 351 40 115 103 99 339 191 147 115 195 191 174 239 191 210 222 231 233 238 236
353 25 15 28 2 354 337 297 38 86 140 296 252 173 170 208 217 173 168 149 147 78 332 345 330 313 102 97 95 94 48 131 151 163 186 179 174 258 241 230 215 219 230 232 238
170 57 22 1 345 328 332 26 62 213 280 19 165 188 207 182 203 195 146 183 139 96 114 128 335 186 179 332 162 117 150 297 161 174 156 114 217 236 230 228 207 213 219 223 228
198 302 356 1 58 348 335 45 184 281 307 306 174 203 247 210 206 180 199 199 185 178 138 126 292 302 290 123 137 168 167 128 107 339 104 189 269 281 244 265 226 232 241 241 229
206 251 356 7 72 10 69 49 288 208 306 291 303 176 303 211 185 176 195 187 190 187 150 220 72 199 130 115 243 28 151 79 41 123 141 346 282 250 282 236 229 231 240 218 216
170 119 357 356 10 70 75 3 316 322 10 261 321 311 304 224 195 202 233 211 195 180 118 133 107 2 134 219 192 145 163 116 166 145 147 136 250 222 304 344 247 275 219 202 204
346 49 3 358 47 20 37 328 329 321 351 319 242 335 339 334 211 234 241 219 179 148 161 198 137 137 167 236 219 211 174 157 135 177 71 203 342 342 291 279 215 293 124 151 157
58 78 25 29 74 0 351 307 326 349 343 358 323 3 335 335 330 312 6 347 178 152 151 176 254 100 88 317 125 204 184 154 95 79 204 95 185 12 315 25 63 106 115 127 134
27 41 40 61 56 51 345 351 326 350 154 346 288 358 340 315 332 342 19 88 179 165 170 179 161 216 180 198 155 184 159 149 114 115 180 230 287 320 342 338 17 104 134 141 147
45 87 73 336 5 4 341 355 322 351 356 330 53 11 346 305 341 0 2 109 92 321 23 165 230 196 274 285 232 184 167 168 154 203 162 230 198 282 320 313 170 154 155 161 167
65 121 113 71 324 347 356 12 335 336 303 336 356 341 335 313 28 312 355 318 147 145 157 206 289 163 272 250 169 177 193 184 196 195 252 262 302 205 169 122 146 171 176 189 195
72 107 143 3 10 94 271 286 307 331 258 261 332 326 319 356 310 287 268 257 258 155 173 184 242 160 292 356 106 256 192 189 191 178 165 191 219 188 349 188 192 189 195 205 212
Height
1513 1509 1505 1502 1498 1495 1493 1490 1489 1487 1486 1485 1484 1483 1482 1483 1484 1483 1481 1481 1482 1485 1487 1487 1488 1490 1492 1495 1496 1497 1499 1491 1491 1497 1493 1496 1499 1503 1506 1510 1511 1512 1515 1518 1518
1510 1507 1503 1499 1496 1494 1490 1487 1485 1484 1483 1483 1481 1480 1480 1479 1481 1479 1477 1475 1476 1481 1484 1485 1486 1488 1490 1491 1494 1494 1495 1490 1490 1492 1493 1495 1496 1500 1505 1508 1510 1510 1514 1516 1517
1509 1504 1500 1496 1493 1491 1487 1484 1482 1481 1480 1479 1479 1478 1478 1478 1479 1475 1474 1469 1472 1477 1480 1482 1485 1487 1488 1488 1491 1490 1489 1490 1490 1489 1493 1494 1495 1498 1502 1506 1505 1507 1512 1515 1518
1506 1502 1498 1494 1491 1488 1485 1482 1481 1480 1479 1477 1476 1476 1475 1477 1480 1474 1473 1472 1471 1473 1476 1478 1481 1483 1484 1486 1487 1487 1487 1489 1490 1490 1492 1494 1494 1496 1497 1497 1503 1506 1511 1515 1518
1504 1500 1495 1491 1488 1484 1482 1479 1478 1477 1475 1474 1474 1473 1474 1474 1473 1473 1473 1473 1473 1475 1476 1477 1478 1481 1481 1484 1484 1484 1486 1489 1488 1489 1489 1493 1492 1495 1493 1498 1502 1506 1507 1513 1517
1501 1497 1493 1488 1485 1481 1478 1476 1475 1473 1471 1471 1471 1471 1473 1473 1472 1471 1471 1472 1471 1473 1475 1476 1475 1479 1480 1480 1481 1482 1486 1487 1487 1486 1490 1493 1493 1493 1490 1495 1499 1501 1503 1512 1515
1499 1495 1490 1486 1481 1478 1475 1473 1471 1469 1468 1466 1468 1469 1471 1472 1470 1469 1469 1470 1471 1471 1473 1474 1476 1479 1479 1481 1479 1481 1484 1485 1486 1485 1489 1492 1493 1490 1489 1491 1496 1498 1500 1508 1513
1496 1492 1487 1482 1478 1475 1473 1471 1468 1466 1464 1464 1465 1468 1470 1469 1468 1468 1468 1468 1470 1470 1471 1473 1475 1478 1479 1477 1475 1480 1483 1485 1482 1485 1489 1491 1488 1487 1487 1490 1491 1494 1498 1502 1510
1493 1488 1483 1478 1475 1471 1469 1467 1466 1465 1464 1465 1466 1466 1468 1468 1468 1467 1467 1467 1468 1469 1470 1471 1474 1476 1476 1476 1475 1475 1475 1480 1481 1483 1486 1489 1488 1485 1487 1488 1489 1491 1493 1495 1505
1490 1485 1479 1475 1472 1469 1468 1466 1466 1465 1466 1466 1466 1470 1468 1469 1467 1467 1467 1467 1469 1470 1471 1471 1473 1472 1466 1470 1467 1464 1470 1473 1476 1481 1484 1488 1488 1486 1485 1487 1487 1489 1491 1496 1502
1487 1481 1476 1473 1471 1469 1469 1467 1469 1468 1466 1467 1467 1466 1468 1468 1467 1468 1467 1464 1469 1472 1470 1471 1469 1465 1461 1466 1472 1471 1467 1469 1477 1477 1480 1486 1485 1484 1486 1485 1486 1489 1491 1493 1500
1483 1477 1474 1472 1470 1469 1468 1467 1466 1467 1466 1465 1466 1466 1467 1467 1467 1467 1469 1470 1470 1471 1471 1472 1464 1467 1465 1466 1471 1474 1469 1473 1476 1477 1479 1484 1486 1486 1486 1485 1485 1486 1488 1493 1499
1480 1475 1472 1470 1469 1469 1469 1468 1466 1465 1466 1466 1465 1465 1466 1467 1467 1467 1468 1468 1470 1470 1470 1467 1466 1465 1460 1464 1469 1471 1475 1472 1471 1478 1482 1483 1487 1485 1483 1484 1483 1483 1485 1491 1493
1478 1474 1471 1470 1471 1470 1469 1468 1467 1467 1477 1468 1467 1466 1466 1465 1467 1467 1467 1470 1469 1469 1470 1465 1465 1464 1463 1463 1464 1472 1478 1467 1468 1470 1476 1479 1481 1480 1479 1480 1480 1480 1483 1487 1489
1477 1474 1471 1468 1470 1470 1470 1466 1466 1466 1486 1467 1466 1465 1464 1466 1467 1467 1467 1468 1469 1468 1471 1474 1465 1463 1465 1465 1464 1473 1477 1474 1463 1474 1477 1482 1479 1471 1479 1473 1472 1475 1478 1482 1486
1476 1473 1471 1470 1469 1469 1468 1466 1466 1477 1471 1469 1467 1466 1466 1465 1466 1466 1467 1468 1468 1469 1467 1467 1464 1464 1465 1467 1470 1475 1476 1471 1470 1472 1478 1481 1479 1469 1471 1466 1468 1469 1472 1475 1480
1475 1474 1471 1470 1471 1469 1467 1467 1475 1478 1465 1464 1464 1465 1466 1466 1465 1465 1466 1469 1472 1482 1487 1474 1471 1466 1465 1468 1473 1475 1477 1461 1467 1473 1475 1481 1479 1460 1462 1461 1460 1460 1463 1468 1473
1474 1473 1471 1470 1469 1468 1468 1469 1475 1464 1464 1461 1460 1464 1465 1464 1464 1464 1467 1467 1471 1479 1486 1483 1482 1469 1466 1467 1466 1474 1480 1476 1462 1469 1476 1481 1470 1456 1453 1453 1456 1458 1460 1464 1467
1473 1473 1472 1469 1469 1469 1469 1474 1475 1469 1465 1461 1459 1463 1464 1460 1463 1463 1464 1465 1466 1470 1481 1485 1477 1469 1467 1468 1469 1474 1473 1477 1479 1483 1466 1476 1470 1455 1452 1454 1456 1456 1458 1459 1461
1473 1472 1472 1470 1469 1469 1470 1467 1470 1466 1462 1462 1455 1459 1449 1458 1462 1461 1461 1458 1460 1462 1463 1474 1478 1469 1468 1470 1472 1469 1474 1477 1483 1475 1466 1480 1471 1454 1451 1453 1454 1456 1456 1458 1458
1473 1472 1473 1470 1470 1470 1472 1469 1468 1466 1463 1460 1454 1452 1451 1454 1458 1458 1457 1456 1456 1460 1462 1470 1474 1474 1469 1468 1466 1470 1472 1474 1476 1476 1472 1473 1462 1456 1453 1453 1453 1455 1455 1456 1457
1472 1474 1473 1472 1472 1472 1476 1472 1470 1465 1463 1459 1458 1454 1452 1450 1453 1455 1453 1451 1454 1457 1465 1467 1470 1473 1466 1466 1464 1463 1465 1469 1478 1471 1486 1483 1462 1454 1454 1453 1453 1454 1454 1455 1458
1472 1474 1475 1472 1481 1476 1474 1471 1468 1467 1464 1460 1460 1459 1456 1454 1450 1447 1446 1451 1453 1455 1460 1463 1472 1471 1470 1464 1463 1464 1465 1465 1468 1471 1482 1469 1460 1456 1454 1450 1452 1453 1454 1456 1458
1473 1478 1476 1475 1478 1479 1477 1476 1470 1467 1464 1463 1462 1457 1455 1452 1453 1450 1446 1455 1457 1458 1459 1460 1465 1458 1460 1456 1454 1462 1462 1465 1466 1473 1471 1470 1461 1455 1454 1453 1452 1455 1456 1458 1460
1474 1480 1481 1487 1481 1482 1479 1478 1475 1471 1468 1465 1460 1463 1461 1455 1453 1452 1450 1458 1461 1462 1463 1463 1468 1460 1453 1448 1450 1450 1453 1461 1471 1466 1462 1458 1460 1455 1455 1455 1453 1454 1457 1460 1462
1476 1478 1481 1482 1483 1482 1483 1482 1479 1476 1473 1467 1464 1465 1461 1457 1458 1456 1457 1451 1454 1463 1464 1466 1458 1454 1450 1447 1445 1448 1449 1453 1455 1461 1459 1454 1455 1452 1453 1453 1454 1455 1457 1460 1463
1476 1477 1477 1483 1483 1484 1486 1482 1479 1477 1470 1469 1470 1466 1458 1458 1458 1453 1455 1453 1453 1455 1460 1462 1458 1456 1447 1445 1447 1449 1450 1453 1455 1458 1456 1458 1451 1450 1449 1451 1454 1455 1457 1459 1462